Location: Unspecified
(40.9528°N, 0.0000°E)
Time: 03:26:07
(UTC+00:00)

NOAA 16 DEB - Visible Passes

Search period start: 04 April 2026 00:00
Search period end: 14 April 2026 00:00
Orbit: 808 x 831 km, 98.6° (Epoch: 21 March)

Date Brightness Start Highest point End Pass type
(mag) Time Alt. Az. Time Alt. Az. Time Alt. Az.
4 Apr ? 21:15:40 36° NNE 21:15:40 36° NNE 21:19:10 10° N visible
4 Apr ? 22:57:00 16° NW 22:57:00 16° NW 22:58:30 10° NW visible
5 Apr ? 20:54:19 28° NE 20:54:19 28° NE 20:57:52 10° N visible
5 Apr ? 22:35:40 23° NW 22:35:40 23° NW 22:38:05 10° NNW visible
6 Apr ? 20:32:59 20° NE 20:32:59 20° NE 20:36:19 10° NNE visible
6 Apr ? 22:14:19 33° NW 22:14:19 33° NW 22:17:23 10° NNW visible
7 Apr ? 20:11:38 14° ENE 20:11:48 14° ENE 20:14:18 10° NNE visible
7 Apr ? 21:52:58 43° NNW 21:52:58 43° NNW 21:56:29 10° NNW visible
8 Apr ? 21:31:37 46° NNE 21:31:37 46° NNE 21:35:27 10° N visible
8 Apr ? 23:12:57 13° WNW 23:12:57 13° WNW 23:13:51 10° NW visible
9 Apr ? 21:10:16 38° NE 21:10:16 38° NE 21:14:15 10° N visible
9 Apr ? 22:51:36 19° WNW 22:51:36 19° WNW 22:53:48 10° NW visible
10 Apr ? 20:48:55 27° ENE 20:48:55 27° ENE 20:52:53 10° N visible
10 Apr ? 22:30:15 29° NW 22:30:15 29° NW 22:33:17 10° NNW visible
11 Apr ? 20:27:34 19° ENE 20:27:41 19° ENE 20:31:14 10° NNE visible
11 Apr ? 22:08:53 41° NW 22:08:53 41° NW 22:12:31 10° NNW visible
12 Apr ? 20:06:12 12° ENE 20:06:59 12° ENE 20:09:00 10° NE visible
12 Apr ? 21:47:33 53° NNW 21:47:33 53° NNW 21:51:35 10° NNW visible
13 Apr ? 21:26:11 51° NNE 21:26:11 51° NNE 21:30:29 10° N visible
13 Apr ? 23:07:30 15° WNW 23:07:30 15° WNW 23:09:12 10° NW visible
